Page, AZ

1:37 PM MST on February 11, 2016 (GMT -0700)
Page Municipal

Weather History for KPGA - February, 2013

Change the Weather History Date:

Wednesday, February 6, 2013

  Actual Average (WUND) Record (WUND)
Temperature  
Mean Temperature 47 °F -  
Max Temperature 57 °F - - (-1)
Min Temperature 37 °F - - (-1)
Degree Days  
Heating Degree Days 18    
Moisture  
Dew Point 29 °F    
Average Humidity 52    
Maximum Humidity 70    
Minimum Humidity 18    
Precipitation  
Precipitation 0.00 in - - ()
Sea Level Pressure  
Sea Level Pressure 29.93 in    
Wind  
Wind Speed 1 mph (NNE)    
Max Wind Speed 7 mph    
Max Gust Speed -    
Visibility 10 miles    
Events      
Averages and records for this station are not official NWS values.
T = Trace of Precipitation, MM = Missing Value Source: NWS Daily Summary

Daily Weather History Graph

Daily Weather History Graph

Search for Another Location

Airport or City:

Trip Planner

Search our weather history database for the weather conditions in past years. The results will help you decide how hot, cold, wet, or windy it might be!

Date:

Astronomy

Feb. 06, 2013 Rise Set
Actual Time 7:23 AM MST 5:56 PM MST
Civil Twilight 6:56 AM MST 6:23 PM MST
Nautical Twilight 6:25 AM MST 6:54 PM MST
Astronomical Twilight 5:55 AM MST 7:24 PM MST
Moon 4:07 AM MST (2/6) 2:21 PM MST (2/6)
Length of Visible Light 11h 27m
Length of Day
10h 33m
Waning Crescent, 16% of the Moon is Illuminated
Feb 6
Waning Crescent
Feb 10
New
Feb 17
First Quarter
Feb 25
Full
Mar 4
Last Quarter

Hourly Weather History & Observations

Time (MST) Temp. Windchill Dew Point Humidity Pressure Visibility Wind Dir Wind Speed Gust Speed Precip Events Conditions
12:53 AM 39.2 °F - 26.6 °F 61% 29.96 in 10.0 mi Calm Calm - N/A   Clear
1:53 AM 39.0 °F - 27.0 °F 62% 29.91 in 10.0 mi Calm Calm - N/A   Clear
2:53 AM 37.9 °F - 27.0 °F 65% 29.91 in 9.0 mi Calm Calm - N/A   Clear
3:53 AM 37.9 °F - 28.0 °F 68% 29.88 in 10.0 mi Calm Calm - N/A   Clear
4:53 AM 37.9 °F 34.4 °F 28.9 °F 70% 29.88 in 10.0 mi SSE 4.6 mph - N/A   Clear
5:53 AM 39.0 °F - 28.9 °F 67% 29.89 in 10.0 mi Calm Calm - N/A   Clear
6:53 AM 37.9 °F - 28.0 °F 68% 29.91 in 10.0 mi Calm Calm - N/A   Clear
7:53 AM 39.9 °F - 28.0 °F 63% 29.92 in 10.0 mi Calm Calm - N/A   Clear
8:53 AM 39.9 °F 36.7 °F 28.0 °F 63% 29.94 in 10.0 mi NNW 4.6 mph - N/A   Clear
9:53 AM 42.1 °F - 28.0 °F 58% 29.95 in 10.0 mi Calm Calm - N/A   Scattered Clouds
10:53 AM 44.1 °F - 30.0 °F 58% 29.95 in 10.0 mi Calm Calm - N/A   Partly Cloudy
11:53 AM 46.9 °F - 28.9 °F 50% 29.94 in 10.0 mi NNE 5.8 mph - N/A   Clear
12:53 PM 50.0 °F - 28.9 °F 44% 29.90 in 10.0 mi Calm Calm - N/A   Clear
1:53 PM 53.1 °F - 28.9 °F 40% 29.88 in 10.0 mi NNE 4.6 mph - N/A   Clear
2:53 PM 55.0 °F - 27.0 °F 34% 29.86 in 10.0 mi Variable 4.6 mph - N/A   Clear
3:53 PM 57.0 °F - 26.1 °F 30% 29.86 in 10.0 mi Calm Calm - N/A   Clear
4:53 PM 57.9 °F - 26.1 °F 30% 29.87 in 10.0 mi Calm Calm - N/A   Clear
5:53 PM 54.0 °F - 28.9 °F 38% 29.92 in 10.0 mi NW 4.6 mph - N/A   Mostly Cloudy
6:53 PM 53.1 °F - 30.0 °F 41% 29.95 in 10.0 mi NNE 6.9 mph - N/A   Overcast
7:53 PM 48.9 °F - 28.9 °F 46% 29.98 in 10.0 mi NE 3.5 mph - N/A   Clear
8:53 PM 46.9 °F - 28.9 °F 50% 30.01 in 10.0 mi Calm Calm - N/A   Clear
9:53 PM 44.1 °F - 30.0 °F 58% 30.04 in 4.0 mi Calm Calm - N/A   Haze
10:53 PM 43.0 °F - 30.9 °F 62% 30.04 in 7.0 mi Calm Calm - N/A   Clear
11:53 PM 42.1 °F - 30.9 °F 65% 30.05 in 10.0 mi Calm Calm - N/A   Clear